Location: Battersea Observatory
(44.4318°N, 76.3841°W)
Time: 15:50:18
(UTC-05:00)

Vanguard 1 Rocket - All Passes

Search period start: 25 January 2022 00:00
Search period end: 04 February 2022 00:00
Orbit: 651 x 4224 km, 34.3° (Epoch: 24 January)

Date Brightness Start Highest point End Pass type
(mag) Time Alt. Az. Time Alt. Az. Time Alt. Az.
25 Jan - 09:58:47 10° SSW 10:19:24 32° SE 10:35:35 10° E daylight
25 Jan - 12:25:39 10° SW 12:48:59 52° SSE 13:03:10 10° E daylight
25 Jan - 14:57:54 10° WSW 15:17:35 56° S 15:27:53 10° ESE daylight
25 Jan - 17:31:17 10° W 17:43:17 32° SW 17:50:16 10° SSE visible
26 Jan - 08:48:41 10° S 09:05:50 23° SE 09:21:01 10° E daylight
26 Jan - 11:11:40 10° SW 11:35:08 46° SSE 11:51:20 10° E daylight
26 Jan - 13:42:13 10° WSW 14:04:41 59° S 14:17:08 10° ESE daylight
26 Jan - 16:15:38 10° W 16:31:58 45° SSW 16:40:42 10° SE daylight
26 Jan - 18:50:16 10° W 18:55:49 15° SW 19:00:02 10° SSW visible
27 Jan - 07:42:39 10° SSE 07:52:42 14° SE 08:02:28 10° ESE daylight
27 Jan - 09:58:59 10° SSW 10:21:10 38° SSE 10:38:40 10° E daylight
27 Jan - 12:27:00 10° WSW 12:51:07 57° S 13:05:53 10° E daylight
27 Jan - 14:59:47 10° W 15:19:51 55° SSW 15:30:30 10° ESE daylight
27 Jan - 17:33:40 10° W 17:45:17 28° SW 17:52:22 10° SSE visible
28 Jan - 08:48:00 10° S 09:07:23 29° SE 09:24:43 10° E daylight
28 Jan - 11:12:43 10° SW 11:37:05 51° SSE 11:54:04 10° E daylight
28 Jan - 13:43:57 10° WSW 14:06:55 60° S 14:19:46 10° ESE daylight
28 Jan - 16:17:42 10° W 16:34:06 42° SSW 16:43:05 10° SE daylight
28 Jan - 18:54:41 10° WSW 18:57:35 11° SW 19:00:06 10° SW visible
29 Jan - 07:39:34 10° SSE 07:54:06 19° SE 08:08:20 10° E daylight
29 Jan - 09:59:39 10° SSW 10:22:54 44° SSE 10:41:31 10° E daylight
29 Jan - 12:28:34 10° WSW 12:53:15 60° S 13:08:32 10° E daylight
29 Jan - 15:01:41 10° W 15:22:03 53° SSW 15:33:02 10° SE daylight
29 Jan - 17:36:14 10° W 17:47:09 24° SW 17:54:11 10° S visible
30 Jan - 08:48:04 10° SSW 09:08:53 34° SE 09:27:54 10° E daylight
30 Jan - 11:14:03 10° SW 11:39:02 56° SSE 11:56:43 10° E daylight
30 Jan - 13:45:46 10° W 14:09:07 60° S 14:22:22 10° ESE daylight
30 Jan - 16:19:50 10° W 16:36:05 38° SW 16:45:19 10° SSE daylight
31 Jan - 07:38:26 10° S 07:55:25 24° SE 08:12:31 10° E daylight
31 Jan - 10:00:41 10° SW 10:24:36 49° SSE 10:44:12 10° E daylight
31 Jan - 12:30:16 10° WSW 12:55:21 62° S 13:11:08 10° ESE daylight
31 Jan - 15:03:39 10° W 15:24:08 50° SSW 15:35:28 10° SE daylight
31 Jan - 17:39:05 10° W 17:48:52 20° SW 17:55:37 10° S visible
01 Feb - 06:32:35 10° SSE 06:42:39 14° SE 06:53:09 10° E visible
01 Feb - 08:48:41 10° SSW 09:10:23 40° SE 09:30:45 10° E daylight
01 Feb - 11:15:36 10° WSW 11:40:59 60° SSE 11:59:18 10° E daylight
01 Feb - 13:47:38 10° W 14:11:13 59° SSW 14:24:53 10° ESE daylight
01 Feb - 16:22:03 10° W 16:37:54 33° SW 16:47:20 10° SSE daylight
02 Feb - 07:38:16 10° S 07:56:42 30° SE 08:15:56 10° E daylight
02 Feb - 10:02:01 10° SW 10:26:20 54° SSE 10:46:47 10° E daylight
02 Feb - 12:32:05 10° WSW 12:57:25 63° S 13:13:41 10° ESE daylight
02 Feb - 15:05:38 10° W 15:26:05 46° SSW 15:37:45 10° SE daylight
02 Feb - 17:42:29 10° W 17:50:27 16° SW 17:56:25 10° SSW visible
03 Feb - 06:30:17 10° SSE 06:43:48 19° SE 06:58:36 10° E visible
03 Feb - 08:49:41 10° SSW 09:11:52 45° SSE 09:33:24 10° E daylight
03 Feb - 11:17:19 10° WSW 11:42:56 63° S 12:01:49 10° E daylight
03 Feb - 13:49:34 10° W 14:13:15 57° SSW 14:27:19 10° SE daylight
03 Feb - 16:24:25 10° W 16:39:35 29° SW 16:49:06 10° S daylight
